Regional Weather Roundup
Issued by NWS

Home | Current Version | Previous Version | Graphics & Text | Print | Product List | Glossary On
Versions: 1 2 3 4 5 6 7 8 9 10 11 12 13 14 15 16 17 18 19 20 21 22 23 24 25 26 27 28 29 30 31 32 33 34 35 36 37 38 39 40 41 42 43 44 45 46 47 48 49 50
000
ASUS43 KMPX 042110
RWRMN
WEATHER ROUNDUP FOR MINNESOTA
NATIONAL WEATHER SERVICE TWIN CITIES/CHANHASSEN MN
400 PM CDT WED MAY 04 2016


NOTE: "FAIR" INDICATES FEW OR NO CLOUDS BELOW 12,000 FEET WITH NO
SIGNIFICANT WEATHER AND/OR OBSTRUCTIONS TO VISIBILITY. N/A MEANS
CURRENT SKY AND/OR WEATHER CONDITIONS ARE NOT AVAILABLE.

MNZ060>063-068>070-042200-
   Twin Cities Metro

CITY           SKY/WX    TMP DP  RH WIND       PRES   REMARKS
TWIN CITIES    SUNNY     66  29  24 N15G22    29.94F
ST PAUL        SUNNY     64  32  30 N18       29.94F
CRYSTAL        SUNNY     67  26  21 N15G22    29.93F
BLAINE         SUNNY     66  30  26 N13G20    29.94F
EDEN PRAIRIE   SUNNY     67  30  25 N10G23    29.93F
SOUTH ST PAUL  SUNNY     65  30  26 N10G16    29.93F
LAKE ELMO      FAIR      64  32  29 N10       29.93F
$$
MNZ001>005-007-008-013>017-022>024-027-028-042200-
   Northwest Minnesota

CITY           SKY/WX    TMP DP  RH WIND       PRES   REMARKS
BEMIDJI        SUNNY     62  23  22 N12G18    30.00F
HALLOCK        SUNNY     66  25  20 N3        29.99F
ROSEAU         SUNNY     64  21  19 CALM      29.99F
WARROAD        SUNNY     55  30  38 E8        30.01F
THIEF RVR FALL SUNNY     64  27  24 NW5       30.01F
CROOKSTON      SUNNY     66  30  26 N5        30.01F
FOSSTON        SUNNY     66  21  18 N9        30.01F
DETROIT LAKES  SUNNY     64  27  24 N8G18     30.01F
MOORHEAD       SUNNY     66  30  26 NW8       30.01F
PARK RAPIDS    SUNNY     65  23  20 VRB5G20   29.98F
MAHNOMEN       FAIR      65  26  22 N13       30.00F
$$
MNZ006-009>011-018-025>026-042200-
   North Central Minnesota

CITY           SKY/WX    TMP DP  RH WIND       PRES   REMARKS
BAUDETTE       SUNNY     60  14  16 N9        30.01F
FLAG ISLAND    SUNNY     54  36  50 S8        29.99F
INTL FALLS     SUNNY     60  20  21 NE6       29.99F
WASKISH        SUNNY     63  19  19 NW9       30.00F
BIG FORK       SUNNY     63  16  16 NW3G16    29.98F
LONGVILLE      SUNNY     63  25  23 W9G16     29.98F
GRAND RAPIDS   SUNNY     61  19  20 N13       29.98F
CRANE LAKE     SUNNY     57  16  19 NW5       29.99F
ORR            SUNNY     61  10  13 CALM      29.95F
COOK           SUNNY     61  19  20 NE9       29.97S
WALKER         FAIR      61  24  24 N10G18    29.98F
$$
MNZ012-019>021-037-042200-
   Northeast Minnesota

CITY           SKY/WX    TMP DP  RH WIND       PRES   REMARKS
DULUTH         SUNNY     58  26  29 SE8       29.94F
ELY            SUNNY     57  19  23 N8        29.96S
HIBBING        SUNNY     60  16  18 N13G21    29.95F
EVELETH        SUNNY     59  14  17 NW14      29.97
DULUTH HARBOR  SUNNY     45  37  76 N12       29.98F
TWO HARBORS    SUNNY     54  34  47 CALM      29.95S
SILVER BAY     SUNNY     52  28  40 SE8       29.94S
GRAND MARAIS     N/A     41  34  76 SW3       29.99S
G MARAIS ARPRT SUNNY     54  19  26 CALM      29.95S
$$
MNZ029>031-032-039>041-046>048-054>057-064-042200-
   West Central Minnesota

CITY           SKY/WX    TMP DP  RH WIND       PRES   REMARKS
FERGUS FALLS   SUNNY     66  34  30 N10G20    29.97F
WHEATON        SUNNY     70  36  28 NW15G21   30.02F
MORRIS         SUNNY     70  34  26 NW15G23   29.99F
ALEXANDRIA     SUNNY     66  29  24 N10       30.00F
ELBOW LAKE     FAIR      64  33  30 N13G20    30.00F
WADENA         SUNNY     64  28  25 N12       29.98F
GLENWOOD       SUNNY     66  30  26 NW15      29.99F
APPLETON       SUNNY     70  27  19 N16G28    29.99F
BENSON         SUNNY     70  19  14 NE12G23   29.99S
ORTONVILLE     SUNNY     68  27  21 N15G21    30.01F
MADISON        SUNNY     68  28  22 N15G26    30.01S
WILLMAR        FAIR      68  32  26 NW15G24   29.99F
$$
MNZ033>034-036-042>043-049>051-058-059-042200-
   Central Minnesota

CITY           SKY/WX    TMP DP  RH WIND       PRES   REMARKS
ST CLOUD       SUNNY     65  22  19 N13G22    29.96F
SAUK CENTRE    FAIR      65  25  21 N16G23    29.97F
PAYNESVILLE    SUNNY     67  26  21 N9G17     29.97F
AITKIN         SUNNY     66   3   8 N14       29.94F
PINE RIVER     SUNNY     63  32  31 N8G16     30.01F
BRAINERD       SUNNY     63  21  20 N14G23    29.98F
STAPLES        SUNNY     66  18  15 N9G20     29.97F
LONG PRAIRIE   FAIR      64  27  24 NW17G23   29.98F
LITTLE FALLS   SUNNY     64  19  17 NE8       29.97F
LITCHFIELD     SUNNY     66  30  26 NW12      29.96F
BUFFALO        SUNNY     65  25  21 N9G21     29.96F
MAPLE LAKE     SUNNY     66  29  25 N13G21    29.97S
HUTCHINSON     SUNNY     67  35  29 N12G20    29.97F
$$
MNZ037-044-045-052-053-042200-
   East Central Minnesota

CITY           SKY/WX    TMP DP  RH WIND       PRES   REMARKS
PRINCETON      SUNNY     66  25  20 N12G22    29.96S
MORA           SUNNY     63  23  22 N8        29.96F
CAMBRIDGE      SUNNY     66  39  37 N10       29.92F
RUSH CITY      SUNNY     64  26  23 N12G21    29.94S
MOOSE LAKE     SUNNY     63  27  25 NE16G22   29.92F
HINCKLEY       CLOUDY    63  27  25 NE14G20   29.94S
CLOQUET        SUNNY     63  10  13 N12G22    29.94F
MCGREGOR       SUNNY     63  23  22 N12G18    29.96F
$$
MNZ071>073-080-081-089-090-097-098-042200-
   Southwest Minnesota

CITY           SKY/WX    TMP DP  RH WIND       PRES   REMARKS
MONTEVIDEO     SUNNY     70  30  23 N17G25    30.00F
GRANITE FALLS  SUNNY     70  34  26 N15G22    30.00F
CANBY          SUNNY     69  35  28 W16       30.02S
MARSHALL       SUNNY     67  29  24 N20G30    29.99F
REDWOOD FALLS  SUNNY     69  28  21 N9G26     29.97F
OLIVIA         SUNNY     70  32  24 NW14G24   29.97S
PIPESTONE      SUNNY     68  23  18 N13G23    30.01F
WINDOM         SUNNY     66  30  26 NW21G30   29.98F
WORTHINGTON    SUNNY     64  35  34 NW14G26   30.01F
JACKSON        SUNNY     64  28  25 N18G26    29.99F
TRACY          SUNNY     68  33  27 NW16      30.00F
SLAYTON        SUNNY     65  31  27 N14G22    30.01F
$$
MNZ065>067-074>077-082>085-091>093-042200-
   South Central Minnesota

CITY           SKY/WX    TMP DP  RH WIND       PRES   REMARKS
MANKATO        SUNNY     64  30  27 N18G25    29.94F
NEW ULM        SUNNY     66  30  26 NW14G24   29.95S
ST JAMES       SUNNY     64  27  24 NW16G28   29.96F
FAIRMONT       SUNNY     66  34  30 NW20G25   29.96F
GLENCOE        SUNNY     67  33  28 N15G23    29.95S
FARIBAULT      SUNNY     66  30  26 NW14G24   29.93F
OWATONNA       SUNNY     64  27  24 NW20G28   29.93F
WASECA         SUNNY     64  30  27 NW21      29.95F
ALBERT LEA     SUNNY     64  28  25 NW12G25   29.93F
$$
MNZ078>079-086>088-094>096-042200-
   Southeast Minnesota

CITY           SKY/WX    TMP DP  RH WIND       PRES   REMARKS
ROCHESTER      SUNNY     63  33  32 NW18G31   29.91F
RED WING       SUNNY     66  25  20 N14G21    29.91F
STANTON        SUNNY     66  21  17 N20G29    29.91F
DODGE CENTER   SUNNY     64  28  25 N15G25    29.92F
WINONA         MOSUNNY   63  32  31 NW16G22   29.89F
AUSTIN         SUNNY     63  30  29 N17G28    29.92S
PRESTON        SUNNY     60  32  34 N18G28    29.91S
$$
ABBREVIATIONS USED IN REMARKS
   TC - TEMPERATURES IN CELSIUS
  WCI - WIND CHILL INDEX
   HX - HEAT INDEX
  VSB - VISIBILITY
$$



USA.gov is the U.S. government's official web portal to all federal, state and local government web resources and services.